Location: Newark
(44.0160°N, 116.9215°W)
Time: 06:58:00
(UTC+00:00)

Envisat - Pass Details

Date: 27 November 2019
Orbit: 764 x 766 km, 98.1° (Epoch: 16 December)

Event Time Altitude Azimuth Distance (km) Brightness Sun altitude
Rises 00:37:31 0° 131° (SE) 3,223 6.0 -4.7°
Reaches altitude 10° 00:40:09 10° 118° (ESE) 2,301 5.1 -5.2°
Maximum altitude 00:44:13 25° 64° (ENE) 1,513 4.0 -5.8°
Drops below altitude 10° 00:48:18 10° 11° (N) 2,312 5.2 -6.5°
Sets 00:50:58 0° 359° (N) 3,243 6.0 -7.0°
